Find Starlink 30785

NORAD ID: 58191 Int'l Des: 2023-167 Owner: SPXS Country: US Constellation: starlink operational
LEOCIRCULAR

当前视图

正在加载3D地球...

About Starlink 30785

Starlink 30785 (NORAD 58191) is a starlink constellation satellite (v2 mini) launched Oct 30, 2023 by SPXS of US. It operates in LEO, CIRCULAR orbit with a mass of 730.00 kg.

关于 Starlink 30785

正在加载描述...

即将过境

Passes for default location (London). Set your location on the main map for personalized predictions.

高度历史

Loading altitude history...

两行轨道根数

1 58191U 23167S 26170.03943177 .00000929 00000-0 43300-4 0 9997
2 58191 43.0028 291.1635 0001389 274.7169 85.3524 15.27574800146486
Epoch: Jun 19, 2026 • Age: 8 hours

当前状态

高度 487.1 km
速度 7.63 km/s
星下点 43.08°N, 30.15°W
发射日期 Oct 30, 2023
运行时间 2.6 years
类型 internet

技术详情

分类 Payload
质量 730.00 kg
干质量 700.00 kg
总质量 730.00 kg
长度 0.30 m
直径 4.10 m
跨度 29.00 m
形状 Box + pan
制造商 SPXS
平台类型 Starlink V2M
阶段状态 In Orbit
所有者/国家 SPXS/US

Most Searched